FENGYUN 1C DEB

Satellite information

Favourite Embed

Satellite Type and Status

DEBRISIN ORBIT

Key statistics

Satellite FENGYUN 1C DEB at a glance.

Uptime

9717

Days in orbit

Revolutions

≈ 14.8

Per day

Orbit

SSO

Sun Synchronous Orbit

Inclination

98.7

Latest

Satellite identification and parameters

Extended collection of information and parameters for FENGYUN 1C DEB.

Object identification

Identified? True

Debris? True

Object name: FENGYUN 1C DEB

International designator: 1999-025CBY

Object number (NORAD): 31666

Object ID (CCSDS): 31666

Country: PEOPLES REPUBLIC OF CHINA (PRC)

Current information (Y/N): Y

RCS size: SMALL

Orbital parameters

Period: 97.029 minutes

Inclination: 98.6523 deg

SMA: 6994.549 km

Apoapsis: 633.622 km

Periapsis: 599.207 km

RAAN: 138.828 deg

Eccentricy: 0.00246015

Argument of periapsis: 139.8775 deg

Mean anomaly: 220.4259 deg

Mean motion: 14.84099924 rev/day

Mean motion (dot): 0.00025518 rev/day2

B* drag term: 0.0030387783 1/REarth

Two-line elements (TLE)

Creation date: Dec. 16, 2025, 2:19 a.m.

Reference frame: TEME

Reference center: EARTH

Epoch: Dec. 15, 2025, 9:18 p.m. UTC

TLE line 0: 0 FENGYUN 1C DEB

TLE line 1: 1 31666U 99025CBY 25349.88770990 .00025518 00000-0 30388-2 0 9993

TLE line 2: 2 31666 98.6523 138.8280 0024602 139.8775 220.4259 14.84099924973183

Live tracking on map

Real-time ground track for satellite FENGYUN 1C DEB.

In-orbit conjunctions

A list of the most updated potential collisions computed for object FENGYUN 1C DEB.

Target Orbit TCA Probability of collision Miss distance Type
SL-14 R/B LEO 2025-12-12 12:36:17 0.0003959053 133.0 (m) ROCKET BODY
SL-14 R/B LEO 2025-09-01 06:43:45 0.0001472316 151.0 (m) ROCKET BODY
IRIDIUM 33 DEB LEO 2024-09-26 13:33:47 0.0001038087 833.0 (m) DEBRIS

Associated space launch

Chinese polar orbiting meteorological satellite

FENGYUN 1C DEB was lifted into orbit during the mission ‘Long March 4B | Feng Yun 1C’, on board a Long March 4B space rocket.

The launch took place on May 10, 1999, 1:33 a.m. from Launch Complex 7.

For more information about the launch, click the button.

Launch to space Long March 4B | Feng Yun 1C
Long March 4B | Feng Yun 1C

Agency: N/A

Status: Launch Successful

Launch date: May 10, 1999, 1:33 a.m. UTC

Rocket: Long March 4B

Launch pad: Launch Complex 7

Location: Taiyuan Satellite Launch Center, People's Republic of China

...

Latest news about this satellite

There are no fresh news available about this satellite. Check back as we update our databases every day.


Newsletter sign-up

Weekly statistics, charts and insights to help you stay on top of the space industry.